Papa, Hungary

3:29 PM CET on December 12, 2017 (GMT +0100)
Papa

Weather History for LHPA - December, 2013

Change the Weather History Date:

Friday, December 20, 2013

  Actual Average Record
Temperature  
Mean Temperature 32 °F -  
Max Temperature 39 °F - - ()
Min Temperature 26 °F - - ()
Degree Days  
Heating Degree Days 32    
Moisture  
Dew Point 30 °F    
Average Humidity 93    
Maximum Humidity 100    
Minimum Humidity 75    
Precipitation  
Precipitation 0.00 in - - ()
Sea Level Pressure  
Sea Level Pressure 30.33 in    
Wind  
Wind Speed 2 mph ()    
Max Wind Speed 9 mph    
Max Gust Speed -    
Visibility 2.5 miles    
Events Fog    
T = Trace of Precipitation, MM = Missing Value Source: Averaged Metar Reports

Daily Weather History Graph

Daily Weather History Graph

Search for Another Location

Airport or City:

Trip Planner

Search our weather history database for the weather conditions in past years. The results will help you decide how hot, cold, wet, or windy it might be!

Date:

Astronomy

Dec. 20, 2013 Rise Set
Actual Time 7:33 AM CET 4:02 PM CET
Civil Twilight 6:57 AM CET 4:37 PM CET
Nautical Twilight 6:18 AM CET 5:16 PM CET
Astronomical Twilight 5:41 AM CET 5:54 PM CET
Moon 7:17 PM CET (12/20) 9:07 AM CET (12/20)
Length of Visible Light 9h 40m
Length of Day
8h 28m
Waning Gibbous, 92% of the Moon is Illuminated
Dec 20
Waning Gibbous
Dec 25
Last Quarter
Jan 1
New
Jan 8
First Quarter
Jan 16
Full

Hourly Weather History & Observations

Time (CET) Temp. Windchill Dew Point Humidity Pressure Visibility Wind Dir Wind Speed Gust Speed Precip Events Conditions
12:15 AM 30.2 °F - 30.2 °F 100% 30.18 in 1.9 mi Calm Calm - N/A   Overcast
12:45 AM 30.2 °F - 30.2 °F 100% 30.18 in 1.9 mi Calm Calm - N/A   Overcast
1:15 AM 30.2 °F - 30.2 °F 100% 30.18 in 1.9 mi Calm Calm - N/A   Overcast
1:45 AM 32.0 °F - 30.2 °F 93% 30.18 in 1.9 mi Calm Calm - N/A   Overcast
2:15 AM 32.0 °F 27.6 °F 28.4 °F 87% 30.21 in 2.5 mi SE 4.5 mph - N/A   Overcast
2:45 AM 30.2 °F 25.5 °F 30.2 °F 100% 30.21 in 2.5 mi SSE 4.5 mph - N/A   Overcast
3:15 AM 30.2 °F 25.5 °F 28.4 °F 93% 30.21 in 2.5 mi SSE 4.5 mph - N/A   Overcast
3:45 AM 30.2 °F - 28.4 °F 93% 30.21 in 2.5 mi SE 2.2 mph - N/A   Overcast
4:11 AM 30.2 °F - 28.4 °F 93% 30.21 in 3.1 mi ESE 2.2 mph - N/A   Overcast
4:15 AM 30.2 °F - 28.4 °F 93% 30.21 in 3.1 mi ESE 2.2 mph - N/A   Overcast
4:45 AM 30.2 °F - 28.4 °F 93% 30.21 in 3.1 mi East 2.2 mph - N/A   Overcast
5:15 AM 30.2 °F - 28.4 °F 93% 30.21 in 3.1 mi Calm Calm - N/A   Overcast
5:45 AM 30.2 °F - 28.4 °F 93% 30.24 in 3.1 mi ESE 2.2 mph - N/A   Overcast
6:15 AM 30.2 °F 25.5 °F 28.4 °F 93% 30.24 in 3.1 mi East 4.5 mph - N/A   Overcast
6:45 AM 28.4 °F 23.4 °F 26.6 °F 93% 30.24 in 3.1 mi East 4.5 mph - N/A   Mostly Cloudy
7:15 AM 28.4 °F - 26.6 °F 93% 30.24 in 3.1 mi East 2.2 mph - N/A   Scattered Clouds
7:23 AM 26.6 °F - 26.6 °F 100% 30.24 in 3.1 mi ESE 2.2 mph - N/A   Scattered Clouds
7:45 AM 26.6 °F - 26.6 °F 100% 30.24 in 3.1 mi Calm Calm - N/A   Scattered Clouds
8:15 AM 28.4 °F - 26.6 °F 93% 30.27 in 3.1 mi Calm Calm - N/A   Scattered Clouds
8:45 AM 30.2 °F - 28.4 °F 93% 30.27 in 3.1 mi SE 2.2 mph - N/A   Mostly Cloudy
9:15 AM 32.0 °F - 30.2 °F 93% 30.27 in 3.1 mi South 2.2 mph - N/A   Mostly Cloudy
9:45 AM 33.8 °F - 28.4 °F 81% 30.27 in 3.7 mi South 2.2 mph - N/A   Unknown
10:15 AM 35.6 °F - 30.2 °F 81% 30.27 in 3.7 mi South 2.2 mph - N/A   Unknown
10:45 AM 35.6 °F - 30.2 °F 81% 30.27 in 3.7 mi SW 2.2 mph - N/A   Unknown
11:15 AM 37.4 °F - 32.0 °F 81% 30.27 in 3.7 mi WNW 2.2 mph - N/A   Unknown
11:45 AM 37.4 °F - 32.0 °F 81% 30.27 in 3.7 mi Calm Calm - N/A   Unknown
12:15 PM 37.4 °F 33.9 °F 32.0 °F 81% 30.27 in 3.7 mi WNW 4.5 mph - N/A   Unknown
12:45 PM 39.2 °F - 32.0 °F 75% 30.27 in 4.3 mi SW 2.2 mph - N/A   Unknown
1:15 PM 37.4 °F 33.9 °F 33.8 °F 87% 30.27 in 3.7 mi NNW 4.5 mph - N/A   Unknown
1:45 PM 37.4 °F 33.9 °F 32.0 °F 81% 30.27 in 3.7 mi NNE 4.5 mph - N/A   Unknown
2:15 PM 37.4 °F 33.9 °F 33.8 °F 87% 30.30 in 3.7 mi North 4.5 mph - N/A   Unknown
2:45 PM 35.6 °F 30.0 °F 32.0 °F 87% 30.30 in 3.7 mi North 6.7 mph - N/A   Unknown
3:15 PM 35.6 °F 31.8 °F 32.0 °F 87% 30.30 in 3.7 mi North 4.5 mph - N/A   Unknown
3:45 PM 33.8 °F 27.9 °F 32.0 °F 93% 30.33 in 3.7 mi NNW 6.7 mph - N/A   Unknown
4:15 PM 32.0 °F 25.7 °F 32.0 °F 100% 30.36 in 3.7 mi NNW 6.7 mph - N/A   Unknown
4:22 PM 32.0 °F 25.7 °F 32.0 °F 100% 30.36 in 1.9 mi NNW 6.7 mph - N/A   Mostly Cloudy
4:43 PM 32.0 °F 25.7 °F 32.0 °F 100% 30.36 in 1.6 mi NNW 6.7 mph - N/A   Mostly Cloudy
4:45 PM 32.0 °F 25.7 °F 32.0 °F 100% 30.36 in 1.6 mi NNW 6.7 mph - N/A   Mostly Cloudy
5:15 PM 33.8 °F 27.9 °F 32.0 °F 93% 30.39 in 1.6 mi NNW 6.7 mph - N/A   Mostly Cloudy
5:45 PM 33.8 °F 26.5 °F 32.0 °F 93% 30.39 in 1.6 mi NNW 8.9 mph - N/A   Mostly Cloudy
6:15 PM 33.8 °F 27.9 °F 32.0 °F 93% 30.42 in 1.6 mi North 6.7 mph - N/A   Mostly Cloudy
6:45 PM 33.8 °F 27.9 °F 32.0 °F 93% 30.42 in 1.6 mi North 6.7 mph - N/A   Mostly Cloudy
7:15 PM 32.0 °F 27.6 °F 32.0 °F 100% 30.45 in 1.6 mi North 4.5 mph - N/A   Mostly Cloudy
7:45 PM 32.0 °F 27.6 °F 32.0 °F 100% 30.45 in 1.6 mi North 4.5 mph - N/A   Overcast
8:03 PM 32.0 °F - 32.0 °F 100% 30.48 in 1.2 mi Calm Calm - N/A   Overcast
8:15 PM 32.0 °F - 32.0 °F 100% 30.48 in 1.2 mi Calm Calm - N/A   Overcast
8:45 PM 32.0 °F - 32.0 °F 100% 30.48 in 1.2 mi Calm Calm - N/A   Overcast
9:15 PM 32.0 °F - 30.2 °F 93% 30.48 in 1.2 mi Calm Calm - N/A   Overcast
9:45 PM 30.2 °F - 30.2 °F 100% 30.51 in 1.2 mi Calm Calm - N/A   Overcast
10:15 PM 30.2 °F - 30.2 °F 100% 30.51 in 1.2 mi Calm Calm - N/A   Mostly Cloudy
10:45 PM 30.2 °F - 30.2 °F 100% 30.54 in 1.2 mi Calm Calm - N/A   Mostly Cloudy
10:50 PM 30.2 °F - 30.2 °F 100% 30.54 in 0.7 mi Calm Calm - N/A   Mostly Cloudy
11:03 PM 30.2 °F - 30.2 °F 100% 30.54 in 0.5 mi Calm Calm - N/A Fog Fog
11:15 PM 30.2 °F - 30.2 °F 100% 30.54 in 0.5 mi South 2.2 mph - N/A Fog Fog
11:45 PM 28.4 °F - 28.4 °F 100% 30.54 in 0.4 mi SE 2.2 mph - N/A Fog Light Freezing Fog